Date,TemperatureHighF,TemperatureAvgF,TemperatureLowF,DewpointHighF,DewpointAvgF,DewpointLowF,HumidityHigh,HumidityAvg,HumidityLow,PressureMaxIn,PressureMinIn,WindSpeedMaxMPH,WindSpeedAvgMPH,GustSpeedMaxMPH,PrecipitationSumIn
2014-1-1,36.2,27.2,21.9,19.0,15.1,5.0,77,61,40,30.77,30.49,5,1,8,0.00
2014-1-2,40.8,29.7,21.5,10.0,6.2,-1.0,56,39,17,30.84,30.66,5,1,8,0.00
2014-1-3,38.7,31.4,27.3,6.0,-0.7,-9.0,38,26,17,30.66,30.28,7,1,14,0.00
2014-1-4,35.5,26.5,10.3,17.0,8.9,-7.0,66,48,33,30.34,30.06,10,2,19,0.00
2014-1-5,16.8,8.1,1.8,-2.0,-7.5,-12.0,64,50,33,30.99,30.34,6,1,9,0.00
2014-1-6,30.8,16.1,4.6,3.0,-4.1,-10.0,56,42,27,31.14,30.98,3,0,7,0.00
2014-1-7,40.6,27.6,19.3,14.0,7.8,2.0,55,44,29,30.97,30.48,5,1,9,0.00
2014-1-8,34.1,25.6,17.5,15.0,11.2,7.0,66,55,43,30.58,30.45,5,0,7,0.00
2014-1-9,33.3,25.7,20.0,20.0,13.7,11.0,85,62,39,30.55,30.30,12,2,16,0.00
2014-1-10,30.1,23.7,19.1,18.0,14.3,11.0,82,68,52,30.58,30.23,8,3,17,0.00
2014-1-11,41.9,31.0,21.5,19.0,15.1,13.0,71,53,33,30.75,30.41,6,1,10,0.00
2014-1-12,35.4,27.8,13.9,19.0,13.7,0.0,71,56,42,30.48,30.09,16,4,24,0.00
2014-1-13,27.8,19.4,11.5,12.0,5.9,-1.0,69,57,41,30.84,30.49,7,1,13,0.00
2014-1-14,35.3,23.8,15.1,12.0,7.7,3.0,77,53,25,30.95,30.80,6,1,13,0.00
2014-1-15,39.7,27.3,19.0,16.0,9.7,6.0,61,49,32,30.93,30.70,4,1,8,0.00
2014-1-16,39.6,27.9,20.7,8.0,5.6,-3.0,55,40,16,30.77,30.63,5,0,8,0.00
2014-1-17,38.2,26.6,18.9,14.0,6.8,2.0,54,44,31,30.76,30.65,3,0,6,0.00
2014-1-18,43.9,30.4,22.1,14.0,8.8,6.0,54,41,25,30.78,30.66,3,0,4,0.00
2014-1-19,40.7,32.6,27.4,17.0,12.0,9.0,52,43,32,30.77,30.55,5,1,9,0.00
2014-1-20,44.3,32.0,23.6,12.0,7.5,1.0,57,38,17,30.88,30.57,5,1,7,0.00
2014-1-21,43.3,30.4,20.9,10.0,5.3,-3.0,57,37,14,30.90,30.71,5,1,7,0.00
2014-1-22,38.8,29.5,16.9,7.0,-0.8,-15.0,63,29,15,30.70,30.36,3,0,5,0.00
2014-1-23,21.3,16.4,10.1,13.0,11.1,6.0,89,80,65,31.11,30.48,2,0,5,0.00
2014-1-24,37.2,21.9,9.0,9.0,3.8,-6.0,89,52,24,31.18,31.00,3,0,5,0.00
2014-1-25,47.1,32.8,22.4,16.0,9.4,1.0,55,38,25,30.99,30.45,6,1,9,0.00
2014-1-26,42.0,31.4,24.2,16.0,12.4,10.0,58,46,31,30.45,30.29,5,1,8,0.00
2014-1-27,36.5,28.4,22.2,16.0,13.7,11.0,68,55,41,30.41,30.28,9,2,12,0.00
2014-1-28,31.1,22.7,13.1,12.0,7.2,1.0,77,53,33,30.68,30.30,6,1,14,0.00
2014-1-29,38.8,28.2,19.1,18.0,4.4,-5.0,59,37,25,30.68,30.34,6,2,14,0.00
2014-1-30,41.1,35.6,28.4,31.0,24.1,16.0,93,64,52,30.38,29.99,12,2,15,0.00
2014-1-31,34.5,30.8,23.9,31.0,25.8,21.0,93,82,65,30.08,29.92,13,4,18,0.00
2014-2-1,28.8,22.7,13.4,21.0,14.5,8.0,90,72,49,30.47,30.06,8,2,17,0.00
2014-2-2,27.8,18.4,9.8,11.0,7.2,3.0,87,64,35,30.64,30.46,4,1,9,0.06
2014-2-3,29.1,22.1,17.4,20.0,16.3,7.0,91,79,59,30.56,30.23,4,1,5,0.01
2014-2-4,22.6,18.1,13.2,18.0,14.4,8.0,91,85,71,30.57,30.20,5,1,11,0.00
2014-2-5,24.0,15.7,9.6,15.0,10.1,5.0,89,79,59,30.71,30.57,5,1,10,0.00
2014-2-6,26.3,18.7,12.8,15.0,13.2,10.0,90,80,60,30.64,30.50,8,1,12,0.02
2014-2-7,27.0,22.0,18.4,20.0,17.1,15.0,89,81,65,30.55,30.42,8,2,19,0.00
2014-2-8,34.0,27.0,21.3,25.0,20.0,16.0,86,75,62,30.66,30.52,7,2,16,0.02
2014-2-9,45.8,36.0,28.6,28.0,24.6,21.0,77,64,41,30.64,30.30,8,2,13,0.19
2014-2-10,42.7,34.2,26.9,30.0,25.6,19.0,89,72,42,30.37,30.15,6,1,15,0.03
2014-2-11,37.5,28.8,20.2,23.0,19.1,14.0,89,69,40,30.55,30.36,6,1,11,0.03
2014-2-12,39.3,29.1,18.2,15.0,11.8,4.0,76,51,28,30.67,30.48,7,2,12,0.00
2014-2-13,47.9,37.1,27.3,26.0,20.8,15.0,70,53,37,30.54,30.31,10,3,18,0.00
2014-2-14,47.7,39.2,32.9,27.0,23.8,22.0,66,55,41,30.42,30.21,12,3,23,0.00
2014-2-15,52.2,41.9,33.7,25.0,18.7,14.0,66,42,24,30.43,30.34,15,2,20,0.00
2014-2-16,49.8,41.5,35.6,20.0,15.2,9.0,47,35,26,30.39,30.19,12,4,26,0.00
2014-2-17,49.9,37.1,26.4,18.0,6.9,-7.0,57,32,10,30.58,30.13,7,1,9,0.00
2014-2-18,50.6,39.7,30.7,15.0,9.5,4.0,47,30,17,30.15,30.06,6,1,10,0.00
2014-2-19,46.1,38.0,27.7,23.0,12.9,8.0,57,36,26,30.07,29.57,14,3,25,0.00
2014-2-20,28.1,21.3,14.0,9.0,-0.9,-5.0,56,39,25,30.40,29.64,12,3,18,0.00
2014-2-21,38.6,26.5,15.7,10.0,3.3,-7.0,47,37,29,30.42,30.21,6,2,15,0.00
2014-2-22,41.2,31.9,23.0,15.0,10.9,8.0,54,42,29,30.20,30.04,7,2,12,0.00
2014-2-23,47.2,35.6,25.7,12.0,7.4,2.0,52,33,19,30.25,30.14,8,1,11,0.00
2014-2-24,49.2,37.2,28.0,10.0,5.9,2.0,35,28,16,30.23,30.12,7,1,12,0.00
2014-2-25,48.7,38.3,30.1,15.0,9.9,5.0,40,31,21,30.20,29.98,10,2,12,0.00
2014-2-26,48.0,36.4,26.9,18.0,13.2,10.0,54,39,26,30.09,30.00,5,1,10,0.00
2014-2-27,41.8,33.0,26.7,30.0,20.8,12.0,94,63,45,30.05,29.74,6,2,16,0.00
2014-2-28,39.6,31.5,24.6,26.0,23.2,21.0,92,73,51,30.17,29.83,12,2,14,0.28
2014-3-1,38.7,33.9,29.7,33.0,28.3,25.0,95,81,59,30.11,29.86,14,2,16,0.07
2014-3-2,33.6,29.5,26.2,31.0,27.7,25.0,95,92,88,30.30,29.93,3,0,8,0.19
2014-3-3,35.1,28.4,24.5,28.0,24.5,22.0,94,86,71,30.36,30.27,7,0,7,0.07
2014-3-4,41.3,31.3,23.4,28.0,23.7,17.0,91,75,37,30.30,30.05,4,0,8,0.01
2014-3-5,44.3,32.9,23.2,28.0,21.7,9.0,94,67,26,30.35,30.06,5,1,8,0.04
2014-3-6,48.0,37.2,27.8,22.0,16.0,8.0,76,46,24,30.35,30.01,4,1,10,0.00
2014-3-7,43.4,34.1,23.8,30.0,21.5,13.0,89,62,40,30.10,29.88,6,1,9,0.00
2014-3-8,35.6,26.1,20.9,21.0,16.3,12.0,88,68,45,30.63,30.10,3,0,7,0.02
2014-3-9,54.0,34.5,18.4,16.0,9.6,2.0,72,41,13,30.65,30.40,3,0,6,0.00
2014-3-10,57.7,43.1,30.6,16.0,8.3,-8.0,48,27,7,30.40,29.83,8,1,10,0.00
2014-3-11,43.5,36.1,20.1,14.0,8.9,-1.0,63,35,16,30.23,29.70,15,3,22,0.00
2014-3-12,42.6,26.3,12.4,12.0,8.7,5.0,81,52,24,30.54,30.24,4,1,7,0.00
2014-3-13,48.6,35.5,24.0,19.0,13.6,8.0,59,42,26,30.53,30.07,7,1,12,0.00
2014-3-14,38.2,31.1,28.2,30.0,26.3,19.0,94,82,63,30.23,30.06,10,0,14,0.00
2014-3-15,39.7,28.0,19.9,28.0,24.2,15.0,95,86,56,30.42,30.05,2,0,4,0.29
2014-3-16,44.7,28.0,12.9,22.0,14.2,8.0,88,60,31,30.61,30.39,2,0,6,0.22
2014-3-17,48.7,38.4,28.7,18.0,12.8,8.0,57,36,22,30.37,29.55,10,2,17,0.00
2014-3-18,39.9,29.4,18.8,14.0,7.2,-1.0,80,41,26,30.18,29.51,6,2,14,0.00
2014-3-19,40.0,26.8,14.9,13.0,7.6,0.0,87,49,22,30.49,30.19,5,1,10,0.00
2014-3-20,49.8,37.1,25.0,8.0,0.4,-9.0,37,22,9,30.47,30.06,8,2,14,0.00
2014-3-21,54.8,38.7,27.8,16.0,7.2,-1.0,59,29,16,30.13,29.93,5,1,13,0.00
2014-3-22,48.6,35.0,23.7,21.0,15.7,13.0,70,48,25,30.25,30.05,7,2,16,0.00
2014-3-23,43.1,33.4,25.3,27.0,21.0,10.0,91,64,33,30.30,30.20,7,2,16,0.06
2014-3-24,53.2,38.3,27.8,17.0,9.0,3.0,61,32,14,30.28,30.16,6,1,14,0.00
2014-3-25,55.1,39.2,25.3,19.0,11.2,3.0,60,35,13,30.29,29.98,6,1,11,0.00
2014-3-26,48.8,36.6,28.4,30.0,26.0,17.0,93,67,38,29.98,29.61,8,2,18,0.00
2014-3-27,37.7,30.6,25.2,27.0,21.2,16.0,93,70,47,30.06,29.68,8,3,19,0.18
2014-3-28,45.8,34.7,25.9,22.0,14.9,9.0,69,47,24,30.37,30.05,7,2,12,0.01
2014-3-29,52.7,37.6,23.1,24.0,14.8,8.0,63,41,26,30.45,30.20,6,1,11,0.00
2014-3-30,54.8,43.6,34.6,18.0,13.4,4.0,47,31,17,30.22,29.74,12,2,17,0.00
2014-3-31,48.0,34.9,24.7,15.0,7.5,3.0,56,34,17,30.11,29.84,7,2,13,0.00
2014-4-1,54.2,43.2,34.1,17.0,10.1,7.0,35,26,18,30.11,29.77,14,3,17,0.00
2014-4-2,51.7,41.0,31.2,18.0,12.0,8.0,46,31,21,29.81,29.62,10,2,14,0.00
2014-4-3,32.9,25.8,21.2,25.0,17.8,9.0,90,73,42,30.35,29.68,5,1,11,0.04
2014-4-4,43.3,30.0,17.4,22.0,15.9,8.0,91,61,27,30.44,30.17,5,1,9,0.11
2014-4-5,43.9,32.1,26.6,30.0,20.2,13.0,92,64,35,30.17,29.89,4,1,10,0.04
2014-4-6,42.6,31.2,26.6,31.0,24.9,18.0,93,79,40,30.13,29.98,4,0,9,0.08
2014-4-7,44.4,31.7,20.4,24.0,17.3,10.0,92,61,26,30.45,30.12,6,1,10,0.06
2014-4-8,57.1,41.5,28.2,24.0,18.1,14.0,61,41,22,30.47,30.32,4,1,8,0.00
2014-4-9,61.7,48.2,35.6,23.0,16.8,11.0,49,31,16,30.32,30.02,8,2,11,0.00
2014-4-10,63.8,50.7,38.6,17.0,11.3,5.0,36,21,13,30.02,29.89,7,2,13,0.00
2014-4-11,62.7,49.0,33.9,16.0,8.5,4.0,39,21,10,30.09,29.93,6,1,9,0.00
2014-4-12,61.9,46.7,38.8,35.0,18.6,5.0,83,35,20,29.93,29.66,7,2,14,0.00
2014-4-13,53.3,39.5,24.6,33.0,25.2,20.0,93,60,29,29.89,29.63,9,2,16,0.01
2014-4-14,33.9,22.8,11.9,25.0,16.7,9.0,90,78,52,30.53,29.90,5,0,8,0.35
2014-4-15,50.0,36.8,22.5,23.0,11.7,2.0,66,39,19,30.53,29.99,7,2,15,0.00
2014-4-16,57.6,41.2,30.5,31.0,14.6,3.0,94,39,18,30.01,29.81,6,1,12,0.00
2014-4-17,49.3,36.9,27.0,37.0,29.5,23.0,95,77,49,30.28,30.01,3,0,7,0.49
2014-4-18,62.2,47.4,33.8,33.0,25.8,22.0,66,45,24,30.30,30.02,7,1,13,0.00
2014-4-19,55.8,44.8,37.1,38.0,33.3,27.0,88,66,36,30.04,29.73,7,1,11,0.00
2014-4-20,53.8,42.5,36.3,41.0,36.8,34.0,95,81,52,30.01,29.82,4,0,10,0.08
2014-4-21,56.6,43.2,34.0,42.0,36.0,32.0,94,77,49,30.07,29.97,5,0,11,0.14
2014-4-22,64.4,50.8,40.2,40.0,33.6,26.0,82,55,28,30.04,29.57,7,2,16,0.00
2014-4-23,56.8,46.5,36.3,35.0,25.0,12.0,66,44,28,29.57,29.39,10,3,16,0.00
2014-4-24,57.6,41.2,26.8,16.0,7.8,-5.0,60,30,11,29.91,29.58,7,2,14,0.00
2014-4-25,62.2,48.2,35.5,19.0,10.5,-4.0,29,22,16,29.88,29.55,6,1,14,0.00
2014-4-26,55.3,42.7,22.0,32.0,18.8,15.0,93,44,22,29.55,29.19,10,2,15,0.00
2014-4-27,34.8,28.0,21.2,27.0,21.6,14.0,94,78,55,29.75,29.20,10,3,26,0.11
2014-4-28,38.9,30.1,24.9,24.0,16.2,6.0,87,58,28,29.96,29.71,8,2,20,0.14
2014-4-29,41.8,29.8,17.0,24.0,12.8,8.0,81,51,33,30.17,29.96,6,0,6,0.00
2014-4-30,39.3,29.8,20.9,27.0,22.0,15.0,94,74,41,30.25,30.13,3,0,8,0.01
2014-5-1,41.3,31.0,25.0,30.0,24.6,18.0,94,79,41,30.25,30.11,4,0,6,0.25
2014-5-2,58.3,41.3,25.4,29.0,21.1,17.0,81,49,21,30.20,29.98,4,0,8,0.01
2014-5-3,67.3,51.7,37.0,28.0,21.0,15.0,55,32,17,29.98,29.77,7,1,10,0.00
2014-5-4,68.9,55.0,41.4,23.0,15.9,11.0,35,23,13,29.80,29.66,8,2,13,0.00
2014-5-5,66.7,54.3,42.1,20.0,14.6,10.0,34,21,12,29.74,29.54,8,1,10,0.00
2014-5-6,64.8,52.1,41.2,20.0,14.5,6.0,40,23,15,29.56,29.36,6,2,12,0.00
2014-5-7,55.4,44.2,31.9,29.0,14.0,6.0,83,34,16,29.59,29.36,6,1,15,0.00
2014-5-8,42.9,34.0,28.3,34.0,24.2,19.0,93,68,41,29.97,29.60,8,1,11,0.03
2014-5-9,57.1,42.6,29.0,27.0,21.5,16.0,82,48,23,29.99,29.76,11,2,16,0.01
2014-5-10,67.0,52.0,37.0,27.0,22.7,19.0,58,34,20,29.77,29.39,5,1,10,0.00
2014-5-11,59.8,47.9,35.7,30.0,22.3,15.0,52,37,25,29.53,29.26,11,2,15,0.00
2014-5-12,34.6,28.6,21.6,26.0,21.8,16.0,92,76,46,30.24,29.55,2,0,6,0.04
2014-5-13,31.9,24.3,18.6,26.0,20.3,16.0,91,85,66,30.58,30.26,2,0,4,0.43
2014-5-14,45.1,30.1,13.0,27.0,18.6,11.0,92,66,30,30.59,30.39,3,0,9,0.05
2014-5-15,55.8,42.2,28.7,29.0,23.2,19.0,73,49,30,30.40,30.06,5,1,8,0.00
2014-5-16,64.2,50.0,36.0,33.0,25.0,19.0,65,41,18,30.09,29.79,5,1,12,0.00
2014-5-17,68.5,51.1,34.3,34.0,30.0,23.0,89,50,22,29.82,29.70,6,1,11,0.00
2014-5-18,70.9,56.5,41.3,38.0,22.6,5.0,69,33,13,29.76,29.55,10,1,14,0.00
2014-5-19,71.1,58.1,47.6,18.0,11.0,6.0,27,16,8,29.59,29.52,7,2,13,0.00
2014-5-20,70.9,56.2,43.4,18.0,10.0,0.0,30,17,6,29.69,29.60,6,1,11,0.00
2014-5-21,63.5,53.8,41.3,30.0,22.2,11.0,48,30,21,29.81,29.66,5,1,14,0.00
2014-5-22,61.8,47.1,36.8,48.0,36.2,28.0,96,70,32,29.98,29.75,4,0,11,1.10
2014-5-23,55.8,42.7,35.5,48.0,39.6,35.0,97,89,57,30.01,29.88,3,0,7,0.19
2014-5-24,58.0,40.7,33.0,44.0,37.1,32.0,97,88,48,29.93,29.76,6,0,13,0.11
2014-5-25,50.2,39.7,30.7,39.0,34.5,30.0,97,83,47,29.98,29.86,4,0,6,0.20
2014-5-26,54.9,43.1,36.7,46.0,38.3,35.0,95,84,54,30.00,29.88,3,0,7,0.08
2014-5-27,69.8,54.7,39.7,44.0,37.8,35.0,88,57,29,30.02,29.86,3,0,6,0.06
2014-5-28,71.4,54.4,43.1,44.0,38.8,35.0,80,58,32,29.90,29.79,5,0,11,0.00
2014-5-29,70.5,52.9,42.4,47.0,42.1,38.0,93,70,34,29.86,29.72,5,1,9,0.06
2014-5-30,69.5,55.5,44.7,46.0,41.4,36.0,93,63,33,29.85,29.74,8,1,10,0.00
2014-5-31,74.3,58.9,42.7,45.0,37.4,31.0,82,50,24,29.81,29.64,5,1,11,0.00
2014-6-1,73.1,62.7,51.7,43.0,25.8,9.0,56,28,10,29.64,29.53,7,2,16,0.00
2014-6-2,79.3,60.8,41.3,44.0,25.0,13.0,58,28,10,29.76,29.61,7,1,10,0.00
2014-6-3,79.5,66.2,54.7,42.0,31.4,21.0,57,31,14,29.68,29.48,8,2,21,0.00
2014-6-4,80.0,66.3,53.5,24.0,17.5,4.0,31,17,8,29.55,29.43,8,2,14,0.00
2014-6-5,76.0,61.4,51.0,47.0,27.1,2.0,75,31,10,29.59,29.47,5,1,13,0.00
2014-6-6,73.5,59.2,45.8,50.0,36.5,4.0,94,53,11,29.60,29.49,3,1,12,0.00
2014-6-7,63.3,50.8,43.2,48.0,42.3,10.0,93,74,18,29.80,29.58,7,1,11,0.09
2014-6-8,65.6,49.0,38.3,50.0,39.9,29.0,96,73,47,29.81,29.58,4,1,16,0.03
2014-6-9,68.4,50.1,33.4,33.0,28.7,18.0,87,50,16,29.83,29.74,4,1,9,0.02
2014-6-10,75.0,58.2,41.9,36.0,26.5,16.0,66,34,16,29.82,29.63,5,1,11,0.00
2014-6-11,76.0,62.5,48.0,35.0,25.5,17.0,50,26,15,29.68,29.47,6,2,15,0.00
2014-6-12,68.5,54.9,43.5,45.0,40.1,33.0,80,59,35,29.81,29.59,5,1,13,0.00
2014-6-13,72.3,55.9,45.1,47.0,42.2,37.0,92,64,30,29.79,29.56,7,1,13,0.01
2014-6-14,72.3,58.8,47.4,43.0,27.2,7.0,76,36,9,29.59,29.40,10,3,19,0.07
2014-6-15,73.4,58.6,40.3,24.0,11.6,4.0,35,17,9,29.65,29.52,8,2,16,0.00
2014-6-16,74.5,61.6,50.0,23.0,14.1,6.0,24,16,10,29.60,29.48,11,3,25,0.00
2014-6-17,70.1,60.4,53.9,35.0,30.3,22.0,42,33,21,29.58,29.50,9,3,22,0.00
2014-6-18,70.1,57.0,48.7,37.0,32.5,30.0,53,40,26,29.66,29.55,6,2,13,0.00
2014-6-19,75.3,58.7,41.7,36.0,26.8,18.0,65,34,13,29.81,29.65,5,1,10,0.00
2014-6-20,79.1,60.8,44.5,42.0,30.5,17.0,56,35,14,29.82,29.62,6,1,11,0.00
2014-6-21,77.5,63.2,50.7,43.0,34.0,22.0,67,38,15,29.68,29.53,5,1,9,0.00
2014-6-22,77.0,62.1,50.5,36.0,26.7,19.0,52,28,15,29.64,29.52,4,1,9,0.00
2014-6-23,74.8,58.8,44.5,38.0,33.5,26.0,65,41,17,29.78,29.61,4,1,10,0.00
2014-6-24,77.7,60.3,45.5,47.0,38.9,24.0,90,52,15,29.79,29.65,5,1,11,0.00
2014-6-25,76.4,61.5,50.0,50.0,45.4,28.0,88,60,17,29.73,29.55,6,1,11,0.00
2014-6-26,80.8,65.1,48.3,49.0,29.9,15.0,90,35,12,29.62,29.43,6,1,13,0.00
2014-6-27,73.8,62.9,55.4,32.0,26.3,14.0,37,25,16,29.44,29.32,6,2,16,0.00
2014-6-28,78.2,64.1,51.5,35.0,25.9,17.0,45,26,11,29.64,29.44,9,2,15,0.00
2014-6-29,85.8,67.8,50.5,31.0,25.3,15.0,36,21,12,29.70,29.53,7,1,12,0.00
2014-6-30,85.8,69.8,58.6,33.0,29.3,25.0,34,23,12,29.56,29.40,5,1,10,0.00
2014-7-1,73.2,58.5,50.6,50.0,45.4,35.0,91,63,37,29.79,29.48,5,1,10,0.00
2014-7-2,70.8,56.2,47.2,52.0,47.2,38.0,92,74,49,29.94,29.75,8,1,11,0.00
2014-7-3,77.1,56.7,46.7,48.0,42.7,35.0,89,63,27,29.96,29.80,5,0,9,0.04
2014-7-4,77.8,58.2,45.5,50.0,42.9,37.0,89,60,23,29.98,29.84,4,0,9,0.00
2014-7-5,74.5,54.8,46.9,52.0,47.5,44.0,95,79,38,29.96,29.82,4,0,6,0.00
2014-7-6,79.0,63.3,48.0,50.0,41.0,32.0,86,51,19,29.93,29.76,8,1,9,0.18
2014-7-7,83.0,62.2,51.5,49.0,43.2,35.0,78,53,19,29.77,29.60,3,0,6,0.00
2014-7-8,71.3,56.9,50.7,52.0,47.4,41.0,92,72,47,29.94,29.71,2,0,6,0.01
2014-7-9,75.7,57.7,48.3,53.0,46.8,40.0,88,70,29,29.92,29.78,4,1,10,0.12
2014-7-10,74.3,59.6,49.7,56.0,47.9,44.0,93,67,37,29.82,29.67,4,0,6,0.00
2014-7-11,73.6,57.8,50.1,64.0,49.6,45.0,96,76,41,29.86,29.69,2,0,4,0.20
2014-7-12,77.5,58.4,48.0,53.0,49.0,44.0,96,76,33,29.94,29.83,3,0,8,0.12
2014-7-13,67.1,56.9,49.7,60.0,51.9,48.0,95,84,54,29.94,29.86,1,0,5,0.05
2014-7-14,69.8,58.3,49.1,56.0,50.7,47.0,93,77,52,29.96,29.81,5,0,10,0.02
2014-7-15,68.5,54.4,46.6,53.0,48.9,46.0,97,83,52,29.96,29.75,3,0,11,0.02
2014-7-16,71.5,55.4,47.2,54.0,47.1,41.0,96,75,44,29.91,29.66,6,0,8,0.02
2014-7-17,66.4,54.4,46.0,56.0,48.9,44.0,97,82,55,29.82,29.67,6,0,7,0.01
2014-7-18,77.4,58.0,46.0,55.0,46.6,35.0,94,72,23,29.83,29.71,5,0,8,0.01
2014-7-19,76.6,59.6,48.5,51.0,46.1,40.0,91,64,30,29.84,29.70,4,0,7,0.02
2014-7-20,80.7,64.7,48.9,49.0,44.0,40.0,85,51,25,29.80,29.69,4,0,7,0.00
2014-7-21,78.6,63.5,56.2,52.0,45.5,42.0,77,54,30,29.83,29.69,5,1,8,0.01
2014-7-22,77.8,64.4,51.1,52.0,46.8,42.0,80,56,28,29.92,29.82,4,0,10,0.00
2014-7-23,77.4,62.4,51.0,53.0,48.6,44.0,86,63,34,29.94,29.83,3,0,11,0.00
2014-7-24,80.7,65.6,52.5,50.0,44.0,38.0,76,49,22,29.93,29.69,5,1,10,0.00
2014-7-25,84.4,68.4,55.0,46.0,41.9,37.0,56,40,22,29.75,29.57,5,1,9,0.00
2014-7-26,84.1,65.7,54.8,54.0,46.0,41.0,88,53,23,29.77,29.61,4,0,9,0.00
2014-7-27,70.6,58.2,50.4,59.0,50.4,46.0,94,76,50,30.03,29.78,4,0,7,0.00
2014-7-28,65.4,56.0,47.4,56.0,50.6,46.0,97,83,62,30.05,29.94,2,0,8,0.00
2014-7-29,70.8,57.6,49.6,55.0,51.5,49.0,96,81,50,29.99,29.74,4,1,8,0.15
2014-7-30,72.0,56.2,48.5,56.0,50.8,47.0,96,84,42,29.91,29.78,4,0,7,0.01
2014-7-31,69.4,52.5,48.3,56.0,50.3,48.0,98,93,56,29.95,29.80,3,0,11,0.01
2014-8-1,60.4,50.8,44.3,56.0,49.2,44.0,98,94,77,30.01,29.91,2,0,4,0.01
2014-8-2,66.4,54.2,47.5,49.0,45.9,41.0,97,76,49,30.05,29.93,6,1,8,0.00
2014-8-3,70.1,55.3,44.7,52.0,48.1,44.0,97,79,49,30.02,29.86,3,0,9,0.01
2014-8-4,69.8,55.1,49.8,54.0,50.6,46.0,95,86,51,30.49,29.79,3,0,8,0.00
2014-8-5,73.4,60.0,50.9,54.0,49.1,40.0,95,70,42,30.49,30.34,6,1,9,0.01
2014-8-6,77.1,62.3,49.4,46.0,41.0,35.0,76,49,24,30.41,30.30,7,1,9,0.00
2014-8-7,71.2,57.4,51.6,50.0,44.2,39.0,87,63,34,30.35,30.27,5,0,7,0.00
2014-8-8,74.9,59.2,47.0,50.0,44.2,31.0,89,62,21,30.42,30.27,4,0,10,0.00
2014-8-9,76.7,61.8,49.4,48.0,40.3,29.0,80,49,20,30.41,30.29,5,0,7,0.00
2014-8-10,68.3,54.1,45.6,50.0,43.7,39.0,95,70,44,30.67,30.39,2,0,7,0.00
2014-8-11,65.8,51.5,43.4,57.0,47.3,42.0,97,87,55,30.72,30.63,2,0,5,0.00
2014-8-12,68.6,55.7,45.0,57.0,48.3,44.0,98,78,48,30.71,30.49,2,0,6,0.01
2014-8-13,74.6,56.0,47.9,55.0,49.7,46.0,98,82,43,30.53,30.38,3,0,5,0.00
2014-8-14,69.2,58.2,51.4,55.0,51.4,49.0,98,80,53,30.47,30.32,5,1,10,0.00
2014-8-15,71.3,57.0,49.2,57.0,50.9,46.0,97,81,41,30.43,30.33,4,0,5,0.00
2014-8-16,73.5,58.1,46.4,54.0,46.2,42.0,95,68,36,30.50,30.42,3,0,7,0.00
2014-8-17,73.9,58.8,47.6,50.0,44.0,39.0,86,61,29,30.49,30.36,2,0,5,0.00
2014-8-18,74.1,59.3,50.2,51.0,43.9,40.0,75,59,35,30.42,30.25,2,0,10,0.00
2014-8-19,71.8,57.8,49.9,54.0,45.7,41.0,94,66,37,30.32,30.16,4,0,9,0.00
2014-8-20,71.3,59.6,51.6,51.0,46.2,41.0,81,63,37,30.26,30.19,5,1,11,0.00
2014-8-21,74.7,60.7,48.3,45.0,39.2,35.0,69,47,27,30.35,30.27,6,0,6,0.00
2014-8-22,59.0,53.6,47.4,52.0,44.4,37.0,97,74,46,30.36,30.25,2,0,5,0.00
2014-8-23,66.5,54.9,46.3,49.0,44.6,37.0,96,72,42,30.45,30.32,6,1,11,0.00
2014-8-24,72.2,58.6,48.6,47.0,41.9,38.0,75,56,35,30.37,30.27,5,1,11,0.00
2014-8-25,70.3,57.9,48.7,53.0,43.6,38.0,93,61,36,30.41,30.30,2,0,8,0.00
2014-8-26,62.1,52.4,48.3,52.0,48.4,46.0,98,87,64,30.51,30.39,3,0,6,0.00
2014-8-27,49.7,48.6,47.4,49.0,48.1,47.0,98,98,97,30.55,30.49,0,0,4,0.00
2014-9-5,57.2,52.3,48.3,50.0,48.4,46.0,93,86,76,30.57,30.44,1,0,3,0.00
2014-9-6,68.6,53.3,44.0,54.0,48.3,43.0,96,84,59,30.59,30.48,3,0,8,0.00
2014-9-7,74.8,56.2,45.1,51.0,46.1,42.0,97,73,32,30.57,30.35,5,0,8,0.00
2014-9-8,73.0,59.6,49.6,51.0,45.5,41.0,88,62,39,30.41,30.20,5,0,7,0.00
2014-9-9,70.0,58.3,51.6,52.0,48.7,44.0,88,72,42,30.24,30.08,13,2,17,0.00
2014-9-10,69.9,54.9,46.4,47.0,43.4,35.0,89,69,30,30.38,30.18,5,1,10,0.00
2014-9-11,70.4,55.3,43.2,49.0,41.5,34.0,95,65,29,30.43,30.29,5,1,11,0.00
2014-9-12,65.7,49.4,37.0,47.0,41.5,36.0,94,77,42,30.58,30.39,5,0,8,0.00
2014-9-13,68.9,54.1,36.9,47.0,39.6,32.0,95,64,29,30.59,30.48,6,1,13,0.00
2014-9-14,72.3,56.8,45.8,49.0,41.5,33.0,89,61,24,30.49,30.32,7,0,14,0.00
2014-9-15,69.8,55.1,46.7,49.0,44.1,37.0,93,70,31,30.57,30.41,4,0,9,0.00
2014-9-16,70.6,53.3,44.7,50.0,44.4,40.0,94,74,34,30.56,30.44,3,0,9,0.01
2014-9-17,65.5,54.0,46.0,48.0,43.1,37.0,91,69,35,30.47,30.33,3,0,5,0.00
2014-9-18,71.2,54.4,41.0,47.0,36.5,28.0,88,55,24,30.42,30.30,3,0,8,0.00
2014-9-19,73.6,56.1,42.2,51.0,45.8,37.0,97,73,28,30.34,30.24,3,0,7,0.00
2014-9-20,72.8,57.9,45.3,48.0,44.4,39.0,94,65,31,30.49,30.33,6,1,10,0.00
2014-9-21,67.6,56.3,48.2,49.0,47.1,45.0,93,73,48,30.55,30.45,4,1,8,0.00
2014-9-22,58.1,53.3,49.6,55.0,50.1,47.0,94,89,81,30.54,30.42,4,0,7,0.11
2014-9-23,67.4,55.4,48.2,50.0,44.3,36.0,96,70,34,30.51,30.41,5,1,9,0.01
2014-9-24,70.3,54.6,45.8,46.0,41.4,36.0,84,63,31,30.57,30.46,3,0,6,0.01
2014-9-25,70.3,54.0,43.4,48.0,43.5,41.0,93,71,35,30.58,30.44,2,0,5,0.00
2014-9-26,71.0,54.8,44.0,49.0,45.0,40.0,94,73,36,30.47,30.32,4,0,9,0.00
2014-9-27,66.5,52.6,45.6,52.0,47.2,44.0,96,83,51,30.37,30.21,5,0,8,0.09
2014-9-28,62.5,50.0,39.6,51.0,45.1,38.0,96,84,57,30.42,30.33,6,1,12,0.04
2014-9-29,63.1,48.4,40.0,48.0,42.3,33.0,95,81,42,30.39,30.16,9,1,17,0.01
2014-9-30,55.7,43.9,34.9,37.0,31.9,29.0,85,65,45,30.38,30.29,6,2,14,0.00
2014-10-1,58.9,45.8,35.1,35.0,31.3,24.0,87,60,37,30.37,30.22,6,1,14,0.00
2014-10-2,55.6,43.5,35.0,33.0,24.3,12.0,79,50,18,30.65,30.30,6,1,10,0.00
2014-10-3,61.3,47.0,33.5,29.0,23.9,19.0,61,42,24,30.76,30.62,6,1,12,0.02
2014-10-4,65.8,49.9,38.2,30.0,26.8,23.0,61,43,23,30.65,30.38,6,1,8,0.00
2014-10-5,64.7,49.9,37.9,31.0,24.2,13.0,60,40,14,30.43,30.32,3,0,11,0.00
2014-10-6,66.8,51.6,37.9,26.0,22.1,18.0,59,34,17,30.45,30.34,5,1,13,0.00
2014-10-7,69.5,52.6,40.5,27.0,21.5,16.0,50,32,14,30.46,30.37,5,0,6,0.00
2014-10-8,65.9,51.7,42.7,37.0,26.6,18.0,64,40,22,30.44,30.32,3,0,7,0.00
2014-10-9,53.8,45.1,39.8,49.0,42.7,36.0,98,91,67,30.41,30.22,4,0,5,0.17
2014-10-10,43.6,40.3,37.2,41.0,38.6,36.0,98,93,85,30.65,30.40,1,0,3,0.06
2014-10-11,57.7,45.4,39.6,43.0,39.1,35.0,98,81,46,30.63,30.37,4,0,8,0.03
2014-10-12,50.9,39.1,29.6,39.0,33.7,29.0,96,82,52,30.45,30.02,5,1,17,0.01
2014-10-13,46.3,34.4,25.9,33.0,26.7,23.0,97,76,43,30.81,30.44,7,0,9,0.17
2014-10-14,61.0,43.7,29.5,31.0,23.8,20.0,73,49,27,30.85,30.68,4,0,6,0.00
2014-10-15,66.8,50.7,36.2,27.0,21.1,13.0,54,34,13,30.69,30.44,5,1,11,0.00
2014-10-16,65.1,51.6,44.3,31.0,23.9,19.0,50,35,19,30.45,30.37,5,0,13,0.00
2014-10-17,61.4,50.5,43.0,33.0,27.8,22.0,58,42,29,30.46,30.37,1,0,5,0.00
2014-10-18,56.4,45.2,39.0,44.0,37.5,30.0,95,75,55,30.53,30.43,3,0,7,0.04
2014-10-19,58.0,44.5,37.1,42.0,37.7,34.0,93,79,45,30.58,30.47,3,0,5,0.00
2014-10-20,58.8,45.0,35.0,41.0,35.8,32.0,95,73,39,30.65,30.55,8,0,9,0.00
2014-10-21,50.9,42.8,35.7,44.0,39.3,35.0,97,88,68,30.55,30.43,3,0,5,0.00
2014-10-22,57.5,47.4,40.7,42.0,36.3,31.0,95,68,42,30.57,30.48,4,1,8,0.00
2014-10-23,60.8,47.3,36.0,37.0,31.8,28.0,84,58,31,30.65,30.54,3,0,7,0.00
2014-10-24,67.5,51.9,40.2,35.0,26.9,17.0,68,42,15,30.66,30.58,4,0,7,0.00
2014-10-25,69.5,52.6,39.4,31.0,22.6,16.0,49,33,15,30.61,30.43,5,0,7,0.00
2014-10-26,58.8,51.3,46.6,39.0,34.8,28.0,67,54,43,30.43,30.16,10,3,21,0.00
2014-10-27,53.3,46.0,34.0,34.0,27.4,14.0,69,50,32,30.43,30.10,11,3,19,0.00
2014-10-28,54.8,42.4,34.6,27.0,16.3,11.0,71,37,19,30.68,30.43,6,1,11,0.00
2014-10-29,57.6,44.8,34.8,18.0,12.7,10.0,37,28,17,30.72,30.61,6,1,12,0.00
2014-10-30,61.7,45.3,34.2,24.0,18.3,12.0,51,35,19,30.75,30.65,4,0,10,0.00
2014-10-31,55.5,41.0,28.8,32.0,25.4,20.0,71,55,36,30.78,30.65,3,0,7,0.00
2014-11-1,57.8,47.1,39.1,41.0,33.8,26.0,85,62,32,30.65,30.35,6,1,12,0.00
2014-11-2,46.8,38.9,32.6,39.0,34.5,32.0,97,84,64,30.39,30.29,5,1,13,0.19
2014-11-3,40.7,32.4,27.1,33.0,25.0,18.0,96,76,42,30.72,30.34,5,1,10,0.27
2014-11-4,43.1,32.6,26.0,27.0,24.0,21.0,91,72,42,30.88,30.71,3,0,5,0.00
2014-11-5,52.4,36.0,23.3,22.0,15.4,10.0,86,48,19,30.99,30.83,1,0,5,0.00
2014-11-6,55.1,41.6,30.3,23.0,18.4,13.0,55,41,25,31.00,30.79,4,0,8,0.00
2014-11-7,57.3,43.9,35.3,25.0,18.4,14.0,67,37,24,30.78,30.50,4,0,7,0.00
2014-11-8,52.0,39.1,27.5,27.0,22.4,16.0,89,56,25,30.82,30.68,5,1,11,0.00
2014-11-9,55.2,42.9,36.2,21.0,18.4,14.0,53,38,23,30.73,30.21,6,1,13,0.00
2014-11-10,51.2,43.5,38.3,24.0,20.8,17.0,52,41,31,30.21,30.00,12,4,19,0.00
2014-11-11,46.1,39.3,31.9,23.0,20.0,17.0,59,47,35,30.34,30.17,10,3,20,0.00
2014-11-12,40.8,28.2,9.4,29.0,19.3,5.0,81,70,56,30.64,30.32,6,1,11,0.00
2014-11-13,38.3,30.4,11.4,27.0,24.1,7.0,91,78,63,30.77,30.58,8,2,12,0.00
2014-11-14,39.7,33.3,29.0,31.0,29.2,26.0,96,85,66,30.56,30.36,8,2,17,0.10
2014-11-15,36.2,31.4,25.2,30.0,26.4,21.0,96,83,61,30.46,30.30,9,2,17,0.12
2014-11-16,25.3,17.2,11.8,24.0,14.2,9.0,94,88,79,30.94,30.28,5,0,9,0.00
2014-11-17,25.5,15.4,7.9,16.0,10.1,5.0,91,80,57,31.08,30.94,3,0,5,0.00
2014-11-18,30.3,19.0,9.5,15.0,10.9,6.0,90,72,44,31.12,31.01,4,0,8,0.00
2014-11-19,38.0,26.7,18.4,13.0,9.2,2.0,74,50,30,31.00,30.76,5,1,12,0.01
2014-11-20,40.6,31.4,24.8,15.0,7.1,-2.0,57,37,24,30.76,30.58,5,0,6,0.01
2014-11-21,40.1,30.5,25.2,21.0,17.3,14.0,73,59,43,30.67,30.54,3,0,9,0.03
2014-11-22,38.4,31.3,25.8,22.0,17.8,14.0,70,58,47,30.66,30.32,5,1,12,0.04
2014-11-23,30.9,23.5,11.5,25.0,19.0,4.0,92,83,65,30.60,30.19,6,1,10,0.00
2014-11-24,24.4,14.4,6.7,12.0,6.7,2.0,82,72,52,31.13,30.61,5,0,9,0.00
2014-11-25,26.2,18.1,6.3,13.0,6.8,2.0,85,62,48,31.16,31.00,10,2,15,0.00
2014-11-26,43.3,32.0,23.5,24.0,20.8,14.0,78,64,45,31.06,30.93,6,1,9,0.15
2014-11-27,51.0,37.7,28.7,21.0,18.3,8.0,70,49,18,31.02,30.79,6,0,8,0.19
2014-11-28,49.9,40.5,34.0,18.0,13.2,8.0,51,34,21,30.78,30.47,9,1,13,0.04
2014-11-29,45.4,40.2,36.6,17.0,12.8,10.0,39,33,26,30.46,30.30,9,3,16,0.02
2014-11-30,42.5,35.9,30.1,19.0,14.6,11.0,54,42,33,30.64,30.34,8,2,17,0.00
2014-12-1,40.0,32.9,27.8,19.0,16.3,13.0,61,51,40,30.81,30.64,8,1,12,0.00
2014-12-2,46.4,36.3,28.2,16.0,10.7,1.0,54,37,16,30.79,30.60,7,1,8,0.00
2014-12-3,43.2,36.5,30.4,34.0,24.3,9.0,92,64,37,30.67,30.54,8,1,8,0.00
2014-12-4,42.7,35.6,30.3,35.0,32.0,30.0,97,87,67,30.59,30.37,4,0,9,0.13
2014-12-5,38.8,31.8,26.7,34.0,29.4,25.0,97,90,75,30.96,30.51,2,0,4,0.07
2014-12-6,42.4,34.2,26.3,32.0,28.3,24.0,94,80,60,31.01,30.84,3,0,10,0.00
2014-12-7,42.1,33.9,29.6,32.0,27.4,17.0,95,78,58,30.91,30.77,3,0,5,0.01
2014-12-8,45.6,34.0,24.2,22.0,16.2,12.0,71,50,31,31.00,30.89,5,0,6,0.00
2014-12-9,48.3,35.6,25.6,17.0,10.8,3.0,57,38,16,30.93,30.73,3,0,6,0.00
2014-12-10,49.1,35.3,27.0,19.0,12.8,5.0,63,42,24,30.73,30.64,2,0,3,0.00
2014-12-11,46.1,36.6,30.8,24.0,18.5,12.0,71,49,36,30.72,30.60,3,0,9,0.00
2014-12-12,47.7,37.4,29.9,28.0,22.5,15.0,79,58,28,30.74,30.62,3,0,6,0.00
2014-12-13,43.1,36.8,29.3,31.0,25.6,16.0,93,65,40,30.61,30.20,4,1,10,0.00
2014-12-14,28.8,23.5,20.2,27.0,20.9,18.0,92,89,85,30.59,30.13,6,1,12,0.00
2014-12-15,29.2,21.1,15.9,18.0,13.5,10.0,90,73,50,30.96,30.61,5,0,9,0.01
2014-12-16,41.3,27.9,17.5,21.0,13.4,8.0,72,55,38,30.97,30.70,2,0,5,0.05
2014-12-17,29.9,26.2,23.3,27.0,21.3,15.0,94,82,63,30.69,30.45,3,0,5,0.01
2014-12-18,30.7,24.3,21.0,23.0,20.8,19.0,94,86,72,30.75,30.62,2,0,5,0.00
2014-12-19,28.5,20.9,14.5,20.0,16.1,13.0,93,82,61,30.86,30.74,4,0,6,0.00
2014-12-20,37.5,24.3,15.1,19.0,15.4,11.0,89,71,44,30.89,30.69,3,0,10,0.01
2014-12-21,32.4,26.9,22.9,26.0,22.6,19.0,92,84,73,30.69,30.37,5,1,11,0.00
2014-12-22,33.0,26.7,17.2,28.0,23.0,11.0,94,86,69,30.37,30.16,8,2,20,0.00
2014-12-23,21.6,14.7,8.0,13.0,5.5,0.0,91,69,47,30.93,30.38,1,0,5,0.00
2014-12-24,32.6,17.1,3.2,10.0,2.8,-3.0,80,56,33,30.98,30.57,4,1,11,0.00
2014-12-25,31.4,25.1,19.4,23.0,16.3,9.0,93,71,52,30.56,30.20,8,1,11,0.00
2014-12-26,22.4,16.7,10.4,20.0,12.9,7.0,91,85,74,30.74,30.27,3,0,7,0.00
2014-12-27,20.6,11.0,5.1,14.0,7.0,2.0,91,84,72,31.07,30.74,5,0,7,0.00
2014-12-28,25.7,13.4,4.4,10.0,4.0,1.0,88,68,41,31.03,30.84,5,1,11,0.00
2014-12-29,24.4,16.4,10.1,12.0,7.6,3.0,84,69,54,30.87,30.70,6,1,12,0.00
2014-12-30,12.2,5.8,-0.9,6.0,1.9,-4.0,88,83,71,31.16,30.86,6,1,19,0.00
2014-12-31,32.3,14.4,-1.5,19.0,8.3,-5.0,91,78,56,31.19,30.86,1,0,3,0.00
2015-1-1,23.9,15.7,7.6,17.0,10.1,5.0,92,80,54,30.85,30.58,4,0,9,0.00
2015-1-2,31.8,16.9,5.7,17.0,8.3,1.0,89,71,39,30.91,30.61,2,0,7,0.00